User: anonymous   Login
Location: Unspecified
(0.0000°N, 0.0000°E)
Time: 07:29:45
(UTC+00:00)
Language:

OBJECT A - Orbit

View from above orbital plane
View from above orbital plane
View from above satellite
View from above satellite

Ground track
Ground track

The orbit data is extracted from the following two-line orbital elements,

1 41783U 16059A   17148.80334397 +.00000091 +00000-0 +27132-4 0  9991
2 41783 098.1684 210.3762 0032811 219.7968 140.0827 14.62834395035767
Epoch (UTC): 28 May 2017 19:16:48
Eccentricity: 0.0032811
inclination: 98.1684°
perigee height: 661 km
apogee height: 707 km
right ascension of ascending node: 210.3762°
argument of perigee: 219.7968°
revolutions per day: 14.62834395
mean anomaly at epoch: 140.0827°
orbit number at epoch: 3576

The dashed part of the orbit path shows where the satellite is in the earth's shadow,  

DLR